Location: Arcones
(41.1182°N, 3.7238°W)
Time: 08:30:45
(UTC+00:00)

IRIDIUM 106 - Pass Details

Date: 23 March 2026
Orbit: 776 x 780 km, 86.4° (Epoch: 18 April)

Event Time Altitude Azimuth Distance (km) Brightness Sun altitude
Exits shadow 21:56:46 11° 249° (WSW) 2,287 7.0 -36.4°
Maximum altitude 21:59:48 16° 286° (WNW) 1,927 6.9 -36.8°
Drops below altitude 10° 22:03:02 10° 324° (NW) 2,338 7.5 -37.2°
Sets 22:06:18 0° 345° (NNW) 3,270 8.3 -37.7°
